Powrót do katalogu

COSMOS 1694

AktywnyMilitariaPO
NORAD 16142·PAYLOAD·🇷🇺 Russia

Wystrzelony Oct 9, 1985 z Plesetsk Cosmodrome

Loading…

Następne Przeloty (najbliższe 24 godziny)

TLE

ŚwieżeSource: Space-Track

Epoka: Sep 14, 2026, 14:31 UTC

1 16142U 85094E   26257.60488693  .00000011  00000-0  21020-5 0  9998
2 16142  82.6106 205.2746 0010693 220.5488 261.4589 12.63684607887958

Śledź COSMOS 1694 w czasie rzeczywistym z AllMySat

Download on the App Store